| time (UTC) | temp F | wind direction | speed MPH | gust MPH | rain 1hr in | rain 24hr in | rain mn in | humidity % | barometer mb |
| 20260507153927 | 53 | 156 | 2.0 | 2.0 | 0.00 | 0.15 | 0.15 | 99 | 1031.5 |
| 20260507153423 | 53 | 154 | 2.0 | 3.0 | 0.00 | 0.15 | 0.15 | 99 | 1031.8 |
| 20260507152919 | 53 | 160 | 0.0 | 2.0 | 0.02 | 0.15 | 0.15 | 99 | 1031.7 |
| 20260507152416 | 53 | 166 | 3.0 | 3.0 | 0.02 | 0.15 | 0.15 | 99 | 1031.6 |
| 20260507151912 | 54 | 175 | 2.0 | 3.0 | 0.00 | 0.15 | 0.15 | 99 | 1031.5 |
| 20260507151409 | 55 | 144 | 2.0 | 2.0 | 0.00 | 0.15 | 0.15 | 99 | 1031.5 |
| 20260507150906 | 54 | 180 | 0.0 | 1.0 | 0.00 | 0.15 | 0.15 | 99 | 1031.5 |
| 20260507150402 | 54 | 180 | 1.0 | 2.0 | 0.00 | 0.15 | 0.15 | 99 | 1031.3 |
| 20260507145859 | 54 | 174 | 3.0 | 3.0 | 0.02 | 0.15 | 0.15 | 99 | 1031.3 |
| 20260507145355 | 54 | 175 | 2.0 | 2.0 | 0.02 | 0.14 | 0.14 | 99 | 1031.5 |
| 20260507144852 | 54 | 180 | 0.0 | 2.0 | 0.00 | 0.14 | 0.14 | 99 | 1031.5 |
| 20260507144349 | 54 | 160 | 1.0 | 2.0 | 0.00 | 0.14 | 0.14 | 99 | 1031.4 |
| 20260507143846 | 54 | 180 | 0.0 | 2.0 | 0.00 | 0.14 | 0.14 | 99 | 1031.5 |
| 20260507143343 | 54 | 180 | 1.0 | 1.0 | 0.02 | 0.14 | 0.14 | 99 | 1031.2 |
| 20260507142839 | 54 | 165 | 0.0 | 1.0 | 0.02 | 0.14 | 0.14 | 99 | 1031.1 |
| 20260507142336 | 54 | 160 | 1.0 | 2.0 | 0.00 | 0.13 | 0.13 | 99 | 1031.1 |
| 20260507141832 | 54 | 169 | 1.0 | 2.0 | 0.00 | 0.13 | 0.13 | 99 | 1030.8 |
| 20260507141329 | 54 | 157 | 0.0 | 0.0 | 0.00 | 0.13 | 0.13 | 99 | 1030.8 |
| 20260507140825 | 54 | 165 | 0.0 | 2.0 | 0.00 | 0.13 | 0.13 | 99 | 1030.8 |
| 20260507140322 | 54 | 180 | 0.0 | 2.0 | 0.00 | 0.13 | 0.13 | 99 | 1030.9 |
| 20260507135820 | 54 | 166 | 0.0 | 2.0 | 0.02 | 0.13 | 0.13 | 99 | 1031.0 |
| 20260507135317 | 55 | 157 | 0.0 | 1.0 | 0.00 | 0.13 | 0.13 | 99 | 1031.0 |
| 20260507134814 | 54 | 165 | 0.0 | 2.0 | 0.00 | 0.13 | 0.13 | 99 | 1031.0 |
| 20260507134310 | 54 | 162 | 0.0 | 2.0 | 0.02 | 0.13 | 0.13 | 99 | 1030.7 |
| 20260507133806 | 54 | 172 | 0.0 | 1.0 | 0.00 | 0.13 | 0.13 | 99 | 1030.5 |
| 20260507133302 | 54 | 166 | 0.0 | 1.0 | 0.02 | 0.13 | 0.13 | 99 | 1030.9 |
| 20260507132800 | 54 | 165 | 0.0 | 1.0 | 0.02 | 0.13 | 0.13 | 99 | 1030.8 |
| 20260507132256 | 54 | 157 | 0.0 | 2.0 | 0.02 | 0.12 | 0.12 | 99 | 1030.9 |
| 20260507131754 | 54 | 151 | 1.0 | 1.0 | 0.05 | 0.12 | 0.12 | 99 | 1030.7 |
| 20260507131251 | 54 | 165 | 0.0 | 1.0 | 0.02 | 0.12 | 0.12 | 99 | 1030.9 |
| 20260507130747 | 54 | 145 | 0.0 | 2.0 | 0.02 | 0.11 | 0.11 | 99 | 1030.6 |
| 20260507130245 | 54 | 180 | 0.0 | 1.0 | 0.02 | 0.11 | 0.11 | 99 | 1030.9 |
| 20260507125743 | 54 | 162 | 0.0 | 1.0 | 0.00 | 0.11 | 0.11 | 99 | 1031.2 |
| 20260507125241 | 55 | 172 | 0.0 | 2.0 | 0.00 | 0.11 | 0.11 | 99 | 1030.9 |
| 20260507124737 | 54 | 165 | 0.0 | 1.0 | 0.00 | 0.11 | 0.11 | 99 | 1030.9 |
| 20260507124234 | 55 | 172 | 0.0 | 1.0 | 0.00 | 0.11 | 0.11 | 99 | 1030.8 |
| 20260507123732 | 54 | 172 | 0.0 | 1.0 | 0.00 | 0.11 | 0.11 | 99 | 1030.9 |
| 20260507123230 | 54 | 165 | 0.0 | 2.0 | 0.00 | 0.11 | 0.11 | 99 | 1031.0 |
| 20260507122725 | 54 | 160 | 1.0 | 1.0 | 0.00 | 0.11 | 0.11 | 99 | 1030.8 |
| 20260507122221 | 54 | 165 | 0.0 | 0.0 | 0.00 | 0.11 | 0.11 | 99 | 1030.6 |
| 20260507121717 | 54 | 165 | 0.0 | 1.0 | 0.00 | 0.11 | 0.11 | 99 | 1030.7 |
| 20260507121213 | 54 | 165 | 0.0 | 0.0 | 0.02 | 0.11 | 0.11 | 99 | 1030.7 |
| 20260507120709 | 54 | 160 | 0.0 | 2.0 | 0.00 | 0.11 | 0.11 | 99 | 1031.0 |
| 20260507120206 | 54 | 157 | 0.0 | 2.0 | 0.00 | 0.11 | 0.11 | 99 | 1030.6 |
| 20260507115702 | 54 | 157 | 0.0 | 0.0 | 0.00 | 0.11 | 0.11 | 99 | 1030.7 |
| 20260507115158 | 54 | 154 | 2.0 | 2.0 | 0.00 | 0.11 | 0.11 | 99 | 1030.6 |
| 20260507114654 | 54 | 180 | 0.0 | 1.0 | 0.00 | 0.11 | 0.11 | 99 | 1030.6 |
| 20260507114152 | 54 | 166 | 1.0 | 3.0 | 0.00 | 0.11 | 0.11 | 99 | 1030.6 |
| 20260507113649 | 54 | 172 | 0.0 | 2.0 | 0.02 | 0.11 | 0.11 | 99 | 1030.2 |
| 20260507113145 | 54 | 165 | 2.0 | 2.0 | 0.02 | 0.11 | 0.11 | 99 | 1029.6 |
| 20260507112643 | 54 | 160 | 0.0 | 2.0 | 0.00 | 0.10 | 0.10 | 99 | 1030.0 |
| 20260507112140 | 55 | 180 | 0.0 | 1.0 | 0.00 | 0.10 | 0.10 | 99 | 1030.1 |
| 20260507111637 | 55 | 173 | 0.0 | 0.0 | 0.00 | 0.10 | 0.10 | 99 | 1029.8 |
| 20260507111133 | 55 | 165 | 0.0 | 2.0 | 0.00 | 0.10 | 0.10 | 99 | 1030.1 |
| 20260507110630 | 55 | 157 | 0.0 | 1.0 | 0.00 | 0.10 | 0.10 | 99 | 1029.7 |
| 20260507110127 | 55 | 151 | 1.0 | 2.0 | 0.02 | 0.10 | 0.10 | 99 | 1030.2 |
| 20260507105624 | 55 | 172 | 0.0 | 1.0 | 0.02 | 0.10 | 0.10 | 99 | 1030.3 |
| 20260507105119 | 55 | 165 | 0.0 | 1.0 | 0.00 | 0.10 | 0.10 | 99 | 1030.1 |
| 20260507104617 | 55 | 168 | 1.0 | 2.0 | 0.00 | 0.10 | 0.10 | 99 | 1030.3 |
| 20260507104113 | 55 | 172 | 0.0 | 0.0 | 0.00 | 0.10 | 0.10 | 99 | 1030.0 |
| 20260507103609 | 55 | 172 | 0.0 | 0.0 | 0.00 | 0.10 | 0.10 | 99 | 1030.1 |
| 20260507103106 | 55 | 172 | 0.0 | 0.0 | 0.00 | 0.10 | 0.10 | 99 | 1030.2 |
| 20260507102603 | 55 | 172 | 0.0 | 0.0 | 0.02 | 0.10 | 0.10 | 99 | 1030.3 |
| 20260507102059 | 55 | 172 | 0.0 | 0.0 | 0.07 | 0.10 | 0.10 | 99 | 1030.2 |
| 20260507101555 | 55 | 172 | 0.0 | 0.0 | 0.05 | 0.09 | 0.09 | 99 | 1030.5 |
| 20260507101051 | 55 | 172 | 0.0 | 0.0 | 0.02 | 0.09 | 0.09 | 99 | 1030.5 |
| 20260507100548 | 55 | 165 | 0.0 | 0.0 | 0.00 | 0.08 | 0.08 | 99 | 1030.2 |
| 20260507100047 | 55 | 157 | 0.0 | 1.0 | 0.00 | 0.08 | 0.08 | 99 | 1030.1 |
| 20260507095544 | 55 | 172 | 0.0 | 0.0 | 0.00 | 0.08 | 0.08 | 99 | 1029.8 |
| 20260507095041 | 55 | 172 | 0.0 | 0.0 | 0.00 | 0.08 | 0.08 | 99 | 1030.1 |
| 20260507094537 | 55 | 180 | 0.0 | 0.0 | 0.00 | 0.08 | 0.08 | 99 | 1030.0 |
| 20260507094034 | 55 | 173 | 0.0 | 2.0 | 0.02 | 0.08 | 0.08 | 99 | 1029.5 |
| 20260507093531 | 55 | 180 | 0.0 | 1.0 | 0.02 | 0.08 | 0.08 | 99 | 1029.6 |
| 20260507093030 | 55 | 168 | 0.0 | 1.0 | 0.05 | 0.08 | 0.08 | 99 | 1029.7 |
| 20260507092526 | 55 | 173 | 0.0 | 0.0 | 0.17 | 0.08 | 0.08 | 99 | 1029.7 |
| 20260507092023 | 55 | 173 | 0.0 | 0.0 | 0.21 | 0.07 | 0.07 | 99 | 1029.6 |
| 20260507091520 | 55 | 180 | 0.0 | 1.0 | 0.17 | 0.05 | 0.05 | 99 | 1030.0 |
| 20260507091015 | 55 | 154 | 2.0 | 2.0 | 0.09 | 0.03 | 0.03 | 99 | 1030.1 |
| 20260507090512 | 56 | 195 | 1.0 | 2.0 | 0.00 | 0.02 | 0.02 | 99 | 1030.3 |
| 20260507090009 | 56 | 165 | 0.0 | 2.0 | 0.00 | 0.02 | 0.02 | 99 | 1030.4 |
| 20260507085506 | 56 | 172 | 0.0 | 1.0 | 0.00 | 0.02 | 0.02 | 99 | 1029.7 |
| 20260507085002 | 56 | 173 | 0.0 | 2.0 | 0.00 | 0.02 | 0.02 | 99 | 1029.7 |
| 20260507084459 | 56 | 180 | 0.0 | 1.0 | 0.02 | 0.02 | 0.02 | 99 | 1029.7 |
| 20260507083956 | 56 | 172 | 0.0 | 0.0 | 0.02 | 0.02 | 0.02 | 99 | 1029.4 |
| 20260507083452 | 56 | 15 | 0.0 | 0.0 | 0.00 | 0.01 | 0.01 | 99 | 1029.7 |
| 20260507082949 | 56 | 173 | 0.0 | 0.0 | 0.00 | 0.01 | 0.01 | 99 | 1029.7 |
| 20260507082445 | 56 | 173 | 0.0 | 1.0 | 0.00 | 0.01 | 0.01 | 99 | 1029.6 |
| 20260507081941 | 56 | 180 | 0.0 | 0.0 | 0.00 | 0.01 | 0.01 | 99 | 1029.6 |
| 20260507081438 | 56 | 180 | 0.0 | 0.0 | 0.00 | 0.01 | 0.01 | 99 | 1029.8 |
| 20260507080935 | 56 | 180 | 0.0 | 1.0 | 0.00 | 0.01 | 0.01 | 99 | 1030.2 |
| 20260507080431 | 56 | 180 | 0.0 | 1.0 | 0.00 | 0.01 | 0.01 | 99 | 1029.7 |
| 20260507075926 | 56 | 140 | 0.0 | 0.0 | 0.00 | 0.01 | 0.01 | 99 | 1029.6 |
| 20260507075423 | 56 | 165 | 0.0 | 0.0 | 0.00 | 0.01 | 0.01 | 99 | 1029.5 |
| 20260507074920 | 56 | 157 | 0.0 | 1.0 | 0.00 | 0.01 | 0.01 | 99 | 1030.0 |
| 20260507074416 | 56 | 173 | 0.0 | 1.0 | 0.00 | 0.01 | 0.01 | 99 | 1030.1 |
| 20260507073914 | 56 | 352 | 0.0 | 0.0 | 0.02 | 0.01 | 0.01 | 99 | 1030.0 |
| 20260507073410 | 56 | 180 | 0.0 | 0.0 | 0.02 | 0.01 | 0.01 | 99 | 1030.0 |
| 20260507072908 | 56 | 180 | 0.0 | 0.0 | 0.00 | 0.01 | 0.01 | 99 | 1029.8 |
| 20260507072405 | 56 | 158 | 2.0 | 2.0 | 0.00 | 0.01 | 0.01 | 99 | 1029.1 |
| 20260507071902 | 57 | 160 | 0.0 | 0.0 | 0.00 | 0.01 | 0.01 | 99 | 1029.7 |
| 20260507071359 | 57 | 173 | 0.0 | 1.0 | 0.00 | 0.01 | 0.01 | 99 | 1030.2 |
| 20260507070855 | 57 | 157 | 0.0 | 1.0 | 0.02 | 0.01 | 0.01 | 99 | 1030.3 |
| 20260507070353 | 57 | 168 | 0.0 | 0.0 | 0.00 | 0.00 | 0.00 | 99 | 1030.3 |
| 20260507065850 | 57 | 168 | 0.0 | 0.0 | 0.00 | 0.00 | 0.00 | 99 | 1030.6 |
| 20260507065346 | 57 | 190 | 0.0 | 2.0 | 0.00 | 0.00 | 0.00 | 99 | 1030.5 |
| 20260507064843 | 58 | 206 | 1.0 | 2.0 | 0.00 | 0.00 | 0.00 | 99 | 1030.5 |
| 20260507064342 | 58 | 198 | 0.0 | 2.0 | 0.00 | 0.00 | 0.00 | 99 | 1030.3 |
| 20260507063839 | 59 | 164 | 2.0 | 2.0 | 0.00 | 0.00 | 0.00 | 99 | 1029.8 |
| 20260507063336 | 59 | 186 | 0.0 | 2.0 | 0.00 | 0.00 | 0.00 | 99 | 1029.8 |
| 20260507062832 | 59 | 194 | 0.0 | 3.0 | 0.00 | 0.00 | 0.00 | 99 | 1029.4 |
| 20260507062329 | 60 | 188 | 0.0 | 3.0 | 0.00 | 0.00 | 0.00 | 99 | 1029.6 |
| 20260507061828 | 61 | 201 | 0.0 | 2.0 | 0.00 | 0.00 | 0.00 | 99 | 1029.6 |
| 20260507061325 | 61 | 159 | 2.0 | 2.0 | 0.00 | 0.00 | 0.00 | 99 | 1029.2 |
| 20260507060824 | 61 | 180 | 0.0 | 0.0 | 0.00 | 0.00 | 0.00 | 99 | 1029.1 |
| 20260507060320 | 61 | 188 | 0.0 | 0.0 | 0.00 | 0.00 | 0.00 | 99 | 1029.3 |
| 20260507055817 | 61 | 188 | 0.0 | 0.0 | 0.00 | 0.00 | 0.00 | 99 | 1029.5 |
| 20260507055312 | 61 | 180 | 0.0 | 2.0 | 0.00 | 0.00 | 0.00 | 99 | 1030.0 |
| 20260507054809 | 62 | 169 | 0.0 | 3.0 | 0.00 | 0.00 | 0.00 | 99 | 1029.6 |
| 20260507054305 | 62 | 203 | 1.0 | 2.0 | 0.00 | 0.00 | 0.00 | 99 | 1029.8 |
| 20260507053802 | 62 | 195 | 0.0 | 1.0 | 0.00 | 0.00 | 0.00 | 99 | 1029.8 |
| 20260507053300 | 62 | 180 | 0.0 | 0.0 | 0.00 | 0.00 | 0.00 | 99 | 1030.1 |
| 20260507052759 | 62 | 187 | 0.0 | 2.0 | 0.00 | 0.00 | 0.00 | 99 | 1030.1 |
| 20260507052255 | 62 | 165 | 0.0 | 0.0 | 0.00 | 0.00 | 0.00 | 99 | 1029.8 |
| 20260507051753 | 62 | 165 | 0.0 | 0.0 | 0.02 | 0.00 | 0.00 | 99 | 1030.0 |
| 20260507051249 | 62 | 165 | 0.0 | 0.0 | 0.02 | 0.00 | 0.00 | 99 | 1029.8 |
| 20260507050747 | 62 | 165 | 0.0 | 2.0 | 0.00 | 0.00 | 0.00 | 99 | 1030.1 |
| 20260507050243 | 62 | 180 | 0.0 | 2.0 | 0.00 | 0.00 | 0.00 | 99 | 1030.2 |
| 20260507045740 | 62 | 0 | 0.0 | 0.0 | 0.00 | 0.00 | 0.00 | 99 | 1030.0 |
| 20260507045236 | 62 | 0 | 0.0 | 1.0 | 0.00 | 0.00 | 0.00 | 99 | 1029.4 |
| 20260507044734 | 62 | 353 | 0.0 | 2.0 | 0.00 | 0.00 | 0.00 | 99 | 1029.4 |
| 20260507044230 | 62 | 0 | 1.0 | 2.0 | 0.00 | 0.00 | 0.00 | 99 | 1030.0 |
| 20260507043726 | 62 | 345 | 0.0 | 3.0 | 0.00 | 0.00 | 0.00 | 99 | 1030.0 |
| 20260507043223 | 62 | 0 | 0.0 | 0.0 | 0.00 | 0.00 | 0.00 | 99 | 1030.3 |
| 20260507042719 | 62 | 0 | 0.0 | 2.0 | 0.00 | 0.00 | 0.00 | 99 | 1030.1 |
| 20260507042214 | 62 | 140 | 0.0 | 4.0 | 0.00 | 0.00 | 0.00 | 99 | 1029.8 |
| 20260507041712 | 62 | 165 | 0.0 | 2.0 | 0.00 | 0.00 | 0.00 | 99 | 1030.4 |
| 20260507041208 | 62 | 172 | 0.0 | 0.0 | 0.00 | 0.00 | 0.00 | 99 | 1030.4 |
| 20260507040706 | 62 | 8 | 0.0 | 0.0 | 0.00 | 0.00 | 0.00 | 99 | 1030.3 |
| 20260507040201 | 62 | 8 | 0.0 | 0.0 | 0.00 | 0.00 | 0.00 | 99 | 1030.1 |
| 20260507035657 | 62 | 23 | 2.0 | 2.0 | 0.00 | 0.72 | 0.72 | 99 | 1030.2 |
| 20260507035153 | 62 | 173 | 0.0 | 0.0 | 0.00 | 0.72 | 0.72 | 99 | 1030.1 |
| 20260507034650 | 62 | 173 | 0.0 | 0.0 | 0.02 | 0.72 | 0.72 | 99 | 1030.2 |
| 20260507034148 | 62 | 180 | 0.0 | 2.0 | 0.00 | 0.72 | 0.72 | 99 | 1030.8 |
| 20260507033646 | 62 | 194 | 0.0 | 2.0 | 0.00 | 0.72 | 0.72 | 99 | 1030.6 |
| 20260507033143 | 62 | 324 | 0.0 | 2.0 | 0.00 | 0.72 | 0.72 | 99 | 1030.3 |
| 20260507032641 | 62 | 352 | 2.0 | 2.0 | 0.00 | 0.72 | 0.72 | 99 | 1030.5 |
| 20260507032136 | 62 | 328 | 2.0 | 2.0 | 0.00 | 0.72 | 0.72 | 99 | 1030.4 |
| 20260507031634 | 62 | 328 | 2.0 | 3.0 | 0.00 | 0.72 | 0.72 | 99 | 1030.7 |
| 20260507031130 | 62 | 7 | 0.0 | 0.0 | 0.00 | 0.72 | 0.72 | 99 | 1030.9 |
| 20260507030627 | 62 | 7 | 1.0 | 2.0 | 0.00 | 0.72 | 0.72 | 99 | 1030.9 |
| 20260507030125 | 62 | 148 | 2.0 | 3.0 | 0.02 | 0.72 | 0.72 | 99 | 1031.2 |
| 20260507025622 | 62 | 26 | 0.0 | 2.0 | 0.05 | 0.72 | 0.72 | 99 | 1031.2 |
| 20260507025118 | 62 | 330 | 2.0 | 5.0 | 0.02 | 0.72 | 0.72 | 99 | 1031.1 |
| 20260507024616 | 62 | 66 | 1.0 | 2.0 | 0.02 | 0.71 | 0.71 | 99 | 1031.5 |
| 20260507024113 | 62 | 90 | 0.0 | 2.0 | 0.05 | 0.71 | 0.71 | 99 | 1030.9 |
| 20260507023609 | 62 | 26 | 1.0 | 3.0 | 0.02 | 0.71 | 0.71 | 99 | 1030.9 |
| 20260507023107 | 62 | 345 | 0.0 | 1.0 | 0.00 | 0.70 | 0.70 | 99 | 1031.1 |
| 20260507022603 | 62 | 33 | 0.0 | 2.0 | 0.00 | 0.70 | 0.70 | 99 | 1031.0 |
| 20260507022058 | 62 | 345 | 0.0 | 2.0 | 0.00 | 0.70 | 0.70 | 99 | 1030.7 |
| 20260507021555 | 62 | 0 | 2.0 | 2.0 | 0.00 | 0.70 | 0.70 | 99 | 1030.9 |
| 20260507021051 | 62 | 328 | 2.0 | 2.0 | 0.00 | 0.70 | 0.70 | 99 | 1030.7 |
| 20260507020549 | 62 | 28 | 0.0 | 3.0 | 0.00 | 0.70 | 0.70 | 98 | 1030.9 |
| 20260507020045 | 62 | 341 | 0.0 | 2.0 | 0.00 | 0.70 | 0.70 | 99 | 1030.9 |
| 20260507015544 | 62 | 352 | 0.0 | 0.0 | 0.00 | 0.70 | 0.70 | 98 | 1030.5 |
| 20260507015041 | 62 | 90 | 0.0 | 0.0 | 0.00 | 0.70 | 0.70 | 98 | 1030.8 |
| 20260507014537 | 62 | 81 | 2.0 | 3.0 | 0.00 | 0.70 | 0.70 | 98 | 1030.8 |
| 20260507014033 | 62 | 175 | 2.0 | 3.0 | 0.00 | 0.70 | 0.70 | 98 | 1030.7 |
| 20260507013530 | 62 | 19 | 6.0 | 6.0 | 0.00 | 0.70 | 0.70 | 98 | 1030.5 |
| 20260507013027 | 62 | 15 | 0.0 | 2.0 | 0.00 | 0.70 | 0.70 | 98 | 1030.2 |
| 20260507012524 | 62 | 0 | 0.0 | 2.0 | 0.00 | 0.70 | 0.70 | 98 | 1030.2 |
| 20260507012021 | 62 | 352 | 4.0 | 5.0 | 0.00 | 0.70 | 0.70 | 98 | 1029.8 |
| 20260507011518 | 62 | 350 | 3.0 | 6.0 | 0.02 | 0.70 | 0.70 | 98 | 1030.4 |
| 20260507011014 | 62 | 358 | 4.0 | 5.0 | 0.05 | 0.70 | 0.70 | 98 | 1030.3 |
| 20260507010509 | 63 | 328 | 2.0 | 2.0 | 0.07 | 0.70 | 0.70 | 98 | 1030.0 |
| 20260507010006 | 63 | 173 | 1.0 | 5.0 | 0.09 | 0.70 | 0.70 | 98 | 1029.7 |
| 20260507005503 | 63 | 339 | 4.0 | 5.0 | 0.12 | 0.69 | 0.69 | 98 | 1030.8 |
| 20260507004959 | 63 | 187 | 1.0 | 3.0 | 0.12 | 0.68 | 0.68 | 98 | 1032.2 |
| 20260507004456 | 63 | 270 | 0.0 | 1.0 | 0.07 | 0.66 | 0.66 | 98 | 1031.6 |
| 20260507003954 | 63 | 341 | 2.0 | 3.0 | 0.07 | 0.65 | 0.65 | 98 | 1031.2 |
| 20260507003449 | 63 | 0 | 2.0 | 3.0 | 0.17 | 0.65 | 0.65 | 98 | 1031.3 |
| 20260507002944 | 63 | 0 | 2.0 | 3.0 | 0.21 | 0.64 | 0.64 | 97 | 1031.4 |
| 20260507002441 | 63 | 342 | 0.0 | 3.0 | 0.21 | 0.62 | 0.62 | 97 | 1031.4 |
| 20260507001938 | 63 | 12 | 4.0 | 7.0 | 0.19 | 0.59 | 0.59 | 97 | 1031.5 |
| 20260507001434 | 63 | 39 | 3.0 | 5.0 | 0.19 | 0.58 | 0.58 | 97 | 1031.3 |
| 20260507000932 | 63 | 14 | 0.0 | 3.0 | 0.17 | 0.56 | 0.56 | 97 | 1030.9 |
| 20260507000428 | 63 | 165 | 0.0 | 1.0 | 0.14 | 0.54 | 0.54 | 97 | 1030.2 |
| 20260506235923 | 63 | 33 | 0.0 | 2.0 | 0.14 | 0.53 | 0.53 | 97 | 1029.8 |
| 20260506235421 | 63 | 352 | 0.0 | 0.0 | 0.07 | 0.52 | 0.52 | 97 | 1030.0 |
| 20260506234916 | 64 | 349 | 2.0 | 2.0 | 0.09 | 0.51 | 0.51 | 97 | 1030.2 |
| 20260506234414 | 64 | 352 | 2.0 | 4.0 | 0.14 | 0.50 | 0.50 | 96 | 1030.2 |
| 20260506233912 | 64 | 11 | 2.0 | 3.0 | 0.17 | 0.49 | 0.49 | 96 | 1030.5 |
| 20260506233407 | 64 | 9 | 2.0 | 2.0 | 0.17 | 0.48 | 0.48 | 95 | 1030.6 |
| 20260506232904 | 64 | 160 | 0.0 | 3.0 | 0.12 | 0.46 | 0.46 | 95 | 1030.4 |
| 20260506232400 | 64 | 352 | 0.0 | 4.0 | 0.05 | 0.45 | 0.45 | 95 | 1030.5 |
| 20260506231856 | 64 | 49 | 0.0 | 5.0 | 0.02 | 0.44 | 0.44 | 96 | 1030.2 |
| 20260506231354 | 64 | 352 | 0.0 | 2.0 | 0.00 | 0.43 | 0.43 | 96 | 1029.7 |
| 20260506230851 | 64 | 337 | 0.0 | 0.0 | 0.02 | 0.43 | 0.43 | 96 | 1029.3 |
| 20260506230348 | 64 | 337 | 0.0 | 0.0 | 0.07 | 0.43 | 0.43 | 95 | 1029.5 |
| 20260506225844 | 64 | 345 | 2.0 | 3.0 | 0.07 | 0.43 | 0.43 | 95 | 1029.6 |
| 20260506225342 | 65 | 8 | 2.0 | 3.0 | 0.05 | 0.42 | 0.42 | 94 | 1030.2 |
| 20260506224839 | 65 | 331 | 1.0 | 4.0 | 0.05 | 0.42 | 0.42 | 93 | 1029.6 |
| 20260506224336 | 65 | 31 | 3.0 | 3.0 | 0.02 | 0.41 | 0.41 | 94 | 1029.7 |
| 20260506223832 | 65 | 339 | 2.0 | 3.0 | 0.00 | 0.41 | 0.41 | 94 | 1029.6 |
| 20260506223327 | 64 | 356 | 2.0 | 4.0 | 0.00 | 0.41 | 0.41 | 95 | 1029.7 |
| 20260506222825 | 65 | 345 | 3.0 | 6.0 | 0.00 | 0.41 | 0.41 | 95 | 1030.0 |
| 20260506222320 | 64 | 333 | 3.0 | 6.0 | 0.02 | 0.41 | 0.41 | 96 | 1030.0 |
| 20260506221819 | 64 | 346 | 5.0 | 7.0 | 0.02 | 0.41 | 0.41 | 96 | 1029.7 |
| 20260506221316 | 65 | 358 | 3.0 | 5.0 | 0.05 | 0.41 | 0.41 | 96 | 1029.8 |
| 20260506220813 | 65 | 341 | 2.0 | 4.0 | 0.05 | 0.40 | 0.40 | 96 | 1030.0 |
| 20260506220308 | 66 | 352 | 2.0 | 2.0 | 0.07 | 0.40 | 0.40 | 96 | 1029.5 |
| 20260506215805 | 66 | 0 | 3.0 | 3.0 | 0.07 | 0.39 | 0.39 | 95 | 1029.6 |
| 20260506215301 | 66 | 15 | 0.0 | 2.0 | 0.02 | 0.39 | 0.39 | 95 | 1030.0 |
| 20260506214756 | 66 | 180 | 0.0 | 2.0 | 0.05 | 0.38 | 0.38 | 95 | 1029.6 |
| 20260506214254 | 66 | 180 | 0.0 | 2.0 | 0.09 | 0.38 | 0.38 | 94 | 1030.0 |
| 20260506213752 | 67 | 173 | 1.0 | 3.0 | 0.07 | 0.37 | 0.37 | 92 | 1029.6 |
| 20260506213249 | 68 | 0 | 2.0 | 5.0 | 0.02 | 0.36 | 0.36 | 88 | 1029.2 |
| 20260506212746 | 68 | 346 | 5.0 | 9.0 | 0.00 | 0.36 | 0.36 | 89 | 1028.8 |
| 20260506212242 | 68 | 37 | 4.0 | 8.0 | 0.00 | 0.36 | 0.36 | 88 | 1028.4 |
| 20260506211737 | 68 | 359 | 5.0 | 11.0 | 0.00 | 0.36 | 0.36 | 89 | 1028.2 |
| 20260506211234 | 68 | 340 | 7.0 | 15.0 | 0.00 | 0.36 | 0.36 | 90 | 1028.2 |
| 20260506210731 | 68 | 350 | 7.0 | 18.0 | 0.00 | 0.36 | 0.36 | 89 | 1028.4 |
| 20260506210228 | 68 | 359 | 11.0 | 13.0 | 0.00 | 0.36 | 0.36 | 89 | 1028.4 |
| 20260506205725 | 68 | 337 | 5.0 | 12.0 | 0.00 | 0.36 | 0.36 | 89 | 1028.2 |
| 20260506205220 | 67 | 340 | 5.0 | 7.0 | 0.00 | 0.36 | 0.36 | 92 | 1028.8 |
| 20260506204718 | 67 | 331 | 5.0 | 7.0 | 0.00 | 0.36 | 0.36 | 91 | 1028.7 |
| 20260506204215 | 67 | 350 | 4.0 | 6.0 | 0.00 | 0.36 | 0.36 | 91 | 1028.9 |
| 20260506203713 | 67 | 349 | 3.0 | 8.0 | 0.00 | 0.36 | 0.36 | 90 | 1029.2 |
| 20260506203209 | 67 | 13 | 4.0 | 7.0 | 0.00 | 0.36 | 0.36 | 92 | 1029.3 |
| 20260506202707 | 67 | 1 | 6.0 | 8.0 | 0.02 | 0.36 | 0.36 | 91 | 1029.3 |
| 20260506202203 | 66 | 14 | 4.0 | 6.0 | 0.02 | 0.35 | 0.35 | 92 | 1029.8 |
| 20260506201700 | 66 | 0 | 6.0 | 7.0 | 0.02 | 0.35 | 0.35 | 91 | 1030.1 |
| 20260506201156 | 66 | 343 | 6.0 | 6.0 | 0.02 | 0.35 | 0.35 | 93 | 1030.0 |
| 20260506200654 | 66 | 328 | 6.0 | 10.0 | 0.02 | 0.35 | 0.35 | 94 | 1030.2 |
| 20260506200150 | 66 | 343 | 4.0 | 8.0 | 0.02 | 0.35 | 0.35 | 95 | 1029.6 |
| 20260506195647 | 66 | 346 | 6.0 | 9.0 | 0.05 | 0.35 | 0.35 | 95 | 1029.6 |
| 20260506195143 | 67 | 349 | 7.0 | 10.0 | 0.07 | 0.34 | 0.34 | 95 | 1030.0 |
| 20260506194641 | 67 | 17 | 4.0 | 8.0 | 0.05 | 0.34 | 0.34 | 94 | 1030.6 |
| 20260506194137 | 67 | 24 | 4.0 | 7.0 | 0.00 | 0.33 | 0.33 | 94 | 1030.3 |
| 20260506193635 | 67 | 12 | 2.0 | 6.0 | 0.02 | 0.33 | 0.33 | 94 | 1030.2 |
| 20260506193132 | 68 | 16 | 2.0 | 5.0 | 0.00 | 0.33 | 0.33 | 94 | 1030.4 |
| 20260506192628 | 67 | 15 | 6.0 | 10.0 | 0.00 | 0.33 | 0.33 | 93 | 1030.3 |
| 20260506192124 | 67 | 342 | 3.0 | 7.0 | 0.02 | 0.33 | 0.33 | 93 | 1030.6 |
| 20260506191621 | 68 | 77 | 1.0 | 5.0 | 0.02 | 0.33 | 0.33 | 93 | 1030.7 |
| 20260506191117 | 68 | 0 | 6.0 | 10.0 | 0.00 | 0.32 | 0.32 | 93 | 1030.5 |
| 20260506190615 | 68 | 355 | 1.0 | 7.0 | 0.02 | 0.32 | 0.32 | 93 | 1030.7 |
| 20260506190112 | 69 | 3 | 5.0 | 7.0 | 0.05 | 0.32 | 0.32 | 91 | 1030.6 |
| 20260506185609 | 69 | 30 | 7.0 | 8.0 | 0.00 | 0.32 | 0.32 | 89 | 1031.0 |
| 20260506185105 | 69 | 328 | 2.0 | 6.0 | 0.00 | 0.32 | 0.32 | 87 | 1031.2 |
| 20260506184602 | 70 | 120 | 4.0 | 5.0 | 0.00 | 0.32 | 0.32 | 86 | 1031.2 |
| 20260506184100 | 70 | 11 | 4.0 | 7.0 | 0.00 | 0.32 | 0.32 | 86 | 1030.8 |
| 20260506183556 | 70 | 180 | 0.0 | 4.0 | 0.00 | 0.32 | 0.32 | 85 | 1030.7 |
| 20260506183052 | 70 | 32 | 2.0 | 5.0 | 0.00 | 0.32 | 0.32 | 86 | 1030.8 |
| 20260506182550 | 71 | 172 | 0.0 | 4.0 | 0.00 | 0.32 | 0.32 | 86 | 1030.9 |
| 20260506182047 | 71 | 24 | 0.0 | 8.0 | 0.00 | 0.32 | 0.32 | 85 | 1031.0 |
| 20260506181545 | 70 | 55 | 2.0 | 5.0 | 0.00 | 0.32 | 0.32 | 86 | 1030.8 |
| 20260506181041 | 71 | 112 | 0.0 | 5.0 | 0.00 | 0.32 | 0.32 | 85 | 1030.9 |
| 20260506180538 | 71 | 297 | 1.0 | 6.0 | 0.00 | 0.32 | 0.32 | 84 | 1030.5 |
| 20260506180034 | 71 | 330 | 3.0 | 9.0 | 0.00 | 0.32 | 0.32 | 83 | 1030.5 |
| 20260506175531 | 72 | 206 | 0.0 | 5.0 | 0.00 | 0.32 | 0.32 | 83 | 1030.6 |
| 20260506175027 | 71 | 184 | 3.0 | 4.0 | 0.00 | 0.32 | 0.32 | 83 | 1030.5 |
| 20260506174526 | 72 | 0 | 1.0 | 5.0 | 0.00 | 0.32 | 0.32 | 82 | 1030.0 |
| 20260506174022 | 71 | 215 | 1.0 | 3.0 | 0.00 | 0.32 | 0.32 | 81 | 1030.1 |
| 20260506173520 | 72 | 147 | 3.0 | 4.0 | 0.00 | 0.32 | 0.32 | 79 | 1029.8 |
| 20260506173016 | 72 | 80 | 0.0 | 6.0 | 0.00 | 0.32 | 0.32 | 79 | 1030.2 |
| 20260506172514 | 71 | 15 | 0.0 | 8.0 | 0.00 | 0.32 | 0.32 | 79 | 1029.8 |
| 20260506172010 | 71 | 258 | 2.0 | 2.0 | 0.00 | 0.32 | 0.32 | 85 | 1030.0 |
| 20260506171508 | 70 | 203 | 1.0 | 2.0 | 0.00 | 0.32 | 0.32 | 86 | 1030.0 |
| 20260506171005 | 69 | 32 | 3.0 | 4.0 | 0.00 | 0.32 | 0.32 | 88 | 1029.7 |
| 20260506170501 | 69 | 180 | 2.0 | 3.0 | 0.00 | 0.32 | 0.32 | 89 | 1030.0 |
| 20260506165954 | 69 | 180 | 0.0 | 2.0 | 0.00 | 0.32 | 0.32 | 92 | 1029.7 |
| 20260506165452 | 68 | 180 | 0.0 | 2.0 | 0.00 | 0.32 | 0.32 | 94 | 1030.0 |
| 20260506164942 | 68 | 0 | 0.0 | 2.0 | 0.00 | 0.32 | 0.32 | 95 | 1029.8 |
| 20260506164439 | 68 | 7 | 0.0 | 1.0 | 0.00 | 0.32 | 0.32 | 95 | 1029.7 |
| 20260506163937 | 66 | 0 | 0.0 | 4.0 | 0.00 | 0.32 | 0.32 | 95 | 1029.8 |
| 20260506163432 | 66 | 124 | 2.0 | 2.0 | 0.00 | 0.32 | 0.32 | 96 | 1029.6 |
| 20260506162926 | 66 | 180 | 0.0 | 1.0 | 0.00 | 0.32 | 0.32 | 96 | 1030.0 |
| 20260506162424 | 65 | 166 | 1.0 | 4.0 | 0.00 | 0.32 | 0.32 | 95 | 1029.8 |
| 20260506161916 | 64 | 32 | 0.0 | 5.0 | 0.00 | 0.32 | 0.32 | 95 | 1029.7 |
| 20260506161414 | 64 | 331 | 0.0 | 6.0 | 0.00 | 0.32 | 0.32 | 95 | 1029.8 |
| 20260506160905 | 64 | 331 | 4.0 | 6.0 | 0.00 | 0.32 | 0.32 | 96 | 1030.1 |
| 20260506160402 | 64 | 341 | 7.0 | 8.0 | 0.00 | 0.32 | 0.32 | 96 | 1030.0 |
| 20260506155900 | 64 | 359 | 4.0 | 6.0 | 0.00 | 0.32 | 0.32 | 97 | 1030.3 |
| 20260506155356 | 64 | 328 | 3.0 | 9.0 | 0.00 | 0.32 | 0.32 | 97 | 1030.1 |